Home   Weather   Berkeley   Past weeks

Flag for USA Past Weather in Berkeley, California, USA — Yesterday and Last 2 Weeks

Now
48 °F

Passing clouds.


Feels Like: 47 °F
Forecast: 50 / 67 °F
Wind: 3 mph from North

Location: Metro Oakland International Airport

Current Time: Oct 18, 2017 at 4:10:57 am

Latest Report: Oct 18, 2017 at 2:53 am


Visibility: 8 mi

Pressure: 30.06 "Hg

Humidity: 96%

Dew Point: 47 °F

Location of BerkeleyLocation

Past Weather in Berkeley — Graph

°F

Berkeley Temperature Yesterday

Maximum temperature yesterday: 72 °F (at 2:53 pm)
Minimum temperature yesterday: 50 °F (at 6:53 am)
Average temperature yesterday: 60 °F

High & Low Weather Summary for the Past Weeks

 TemperatureHumidityPressure
High81 °F (Oct 6, 2:53 pm)100% (Oct 7, 6:53 am)30.16 "Hg (Oct 7, 6:53 am)
Low45 °F (Oct 13, 4:53 am)14% (Oct 9, 1:53 am)29.75 "Hg (Oct 3, 4:53 am)
Average61 °F61%30.00 "Hg
* Reported Oct 3 2:53 am — Oct 18 2:53 am, Berkeley. Weather by CustomWeather, © 2017

Note: Actual official high and low records may vary slightly from our data, if they occured in-between our weather recording intervals... More about our weather records

Advertising

Berkeley Weather History for the Previous 24 Hours

Scroll right to see more
 ConditionsComfort  
Time TempWeatherWind HumidityBarometerVisibility
2:53 am
Wed, Oct 18
48 °FPassing clouds.3 mph96%30.06 "Hg8 mi
1:53 am50 °FPassing clouds.5 mph100%30.07 "Hg9 mi
12:53 am51 °FPassing clouds.12 mph96%30.07 "Hg10 mi
11:53 pm
Tue, Oct 17
51 °FPassing clouds.6 mph100%30.08 "Hg9 mi
10:53 pm52 °FPassing clouds.9 mph97%30.07 "Hg10 mi
9:53 pm53 °FPassing clouds.3 mph86%30.06 "Hg10 mi
8:53 pm55 °FPassing clouds.No wind90%30.06 "Hg10 mi
7:53 pm58 °FPassing clouds.10 mph84%30.06 "Hg10 mi
6:53 pm58 °FPassing clouds.8 mph84%30.05 "Hg10 mi
5:53 pm63 °FPartly sunny.9 mph70%30.04 "Hg10 mi
4:53 pm67 °FPartly sunny.8 mph63%30.04 "Hg10 mi
3:53 pm72 °FBroken clouds.9 mph48%30.05 "Hg9 mi
2:53 pm72 °FBroken clouds.7 mph35%30.06 "Hg3 mi
1:53 pm69 °FMore clouds than sun.7 mph53%30.07 "Hg2 mi
12:53 pm70 °FBroken clouds.3 mph38%30.09 "Hg4 mi
11:53 am65 °FPartly sunny.6 mph66%30.11 "Hg6 mi
10:53 am67 °FBroken clouds.6 mph55%30.11 "Hg8 mi
9:53 am64 °FScattered clouds.No wind56%30.11 "Hg6 mi
8:53 am60 °FScattered clouds.No wind56%30.10 "Hg9 mi
7:53 am55 °FScattered clouds.No wind55%30.08 "Hg10 mi
6:53 am50 °FPassing clouds.3 mph66%30.07 "Hg10 mi
5:53 am54 °FPassing clouds.No wind67%30.06 "Hg10 mi
4:53 am54 °FPassing clouds.3 mph69%30.05 "Hg10 mi
Weather by CustomWeather, © 2017

See weather overview